#timestamp,LO_Frequency,Hit,StdDev 
1640797215.7,286047004.3,N
1640797235.5,286047001.4,N
1640797255.4,286047002.1,N
1640797275.2,286047004.0,N
1640797295.1,286047003.8,N
1640797296.0,286047003.8,N
1640797315.8,286047003.2,N
1640797335.6,286047003.9,N
1640797355.5,286047004.3,N
1640797375.3,286047002.5,N
1640797395.1,286047002.2,N
1640797415.9,286047002.3,N
1640797435.7,286047004.4,N
1640797455.6,286047003.9,N
1640797475.4,286047004.4,N
1640797495.2,286047003.6,N
1640797515.1,286047003.5,N
1640797516.0,286047003.5,N
1640797535.8,286047004.1,N
1640797555.6,286047003.9,N
1640797575.5,286047003.4,N
1640797595.3,286047003.8,N
1640797615.2,286047004.4,Y
1640797635.9,286046998.4,P
1640797655.7,286046998.4,N
1640797675.6,286046999.4,N
1640797695.4,286046996.6,N
1640797715.2,286046996.6,N
1640797735.1,286046999.2,N
1640797736.0,286046999.2,N
1640797755.8,286046996.6,N
1640797775.7,286046996.8,N
1640797795.5,286046999.2,N
1640797815.3,286046999.6,N
1640797835.2,286046998.7,N
1640797855.0,286046998.8,N
1640797855.9,286046998.8,N
1640797875.7,286046999.1,N
1640797895.6,286046998.9,N
1640797915.4,286047001.1,N
1640797935.3,286046998.8,N
1640797955.1,286046998.1,N
1640797956.0,286046998.1,N
1640797975.8,286047000.7,N
1640797995.7,286046998.3,N
1640798015.5,286046996.7,N
1640798035.4,286046999.2,N
1640798055.2,286046997.3,N
1640798075.0,286046997.0,N
1640798075.9,286046997.0,N
1640798095.8,286046997.1,N
1640798115.6,286046997.6,N
1640798135.4,286046999.4,N
1640798155.3,286046999.4,N
1640798175.1,286046999.3,N
1640798195.9,286046999.4,N
1640798215.7,286046996.6,N
1640798235.5,286046995.4,Y
1640798255.4,286046996.8,P
1640798275.2,286046999.4,N
1640798295.1,286046998.3,N
1640798296.0,286046998.3,N
1640798315.8,286047000.4,N
1640798335.6,286046999.7,N
1640798355.5,286047000.1,N
1640798375.3,286046999.8,N
1640798395.1,286047002.8,N
1640798415.9,286047000.1,N
1640798435.7,286047001.0,N
1640798455.6,286046998.1,N
1640798475.4,286047001.1,N
1640798495.2,286047001.5,N
1640798515.1,286047001.4,N
1640798516.0,286047001.4,N
1640798535.8,286047004.3,N
1640798555.6,286047004.4,N
1640798575.5,286047001.5,N
1640798595.3,286047002.0,N
1640798615.2,286047001.2,N
1640798635.0,286046998.1,N
1640798635.9,286046998.1,N
1640798655.7,286047000.8,N
1640798675.6,286046998.2,N
1640798695.4,286047000.6,N
1640798715.3,286047000.1,N
1640798735.1,286047002.5,N
1640798755.9,286047004.0,N
1640798775.7,286047001.6,N
1640798795.5,286047002.5,N
1640798815.4,286046998.6,N
1640798835.2,286046998.4,N
1640798855.0,286047000.3,N
1640798856.0,286047000.3,N
1640798875.8,286046999.5,N
1640798895.6,286046995.5,N
1640798915.5,286046994.3,N
1640798935.3,286046993.4,N
1640798955.2,286046994.7,N
1640798975.9,286046990.9,Y
1640798995.7,286046992.6,P
1640799015.6,286046994.5,N
1640799035.4,286046993.5,N
1640799055.3,286046996.1,N
1640799075.1,286046997.1,N
1640799076.0,286046997.1,N
1640799095.8,286046995.7,N
1640799115.7,286046997.7,N
1640799135.5,286046997.6,N
1640799155.3,286046997.0,N
1640799175.2,286046998.3,N
1640799195.0,286046998.1,N
1640799195.9,286046998.1,N
1640799215.8,286046998.7,N
1640799235.6,286046998.3,N
1640799255.4,286046998.6,N
1640799275.3,286047000.2,N
1640799295.1,286047001.1,N
1640799315.8,286047000.4,N
1640799335.7,286047002.3,N
1640799355.5,286047000.7,N
1640799375.4,286047000.3,N
1640799395.2,286047000.1,N
1640799415.0,286046999.9,N
1640799415.9,286046999.9,N
1640799435.8,286047002.8,N
1640799455.6,286047002.8,N
1640799475.5,286047002.3,N
1640799495.3,286046999.8,N
1640799515.1,286046999.8,N
1640799535.9,286047000.2,N
1640799555.7,286046999.7,N
1640799575.5,286046999.9,N
1640799595.4,286047000.2,N
1640799615.2,286047000.1,N
1640799635.1,286047001.0,N
1640799636.0,286047001.0,N
1640799655.8,286047002.7,N
1640799675.6,286047000.1,N
1640799695.5,286047000.8,N
1640799715.3,286046998.4,N
1640799735.1,286047001.0,N
1640799755.9,286047002.6,N
1640799775.7,286047002.1,N
1640799795.6,286047001.9,N
1640799815.4,286047001.6,N
1640799835.2,286047002.5,N
1640799855.1,286047001.6,N
1640799856.0,286047001.6,N
1640799875.8,286046999.7,N
1640799895.7,286047000.4,N
1640799915.5,286047000.4,N
1640799935.3,286046998.2,N
1640799955.2,286046999.6,N
1640799975.9,286046997.5,N
1640799995.7,286046997.7,N
1640800015.6,286046998.4,N
1640800035.4,286047000.8,N
1640800055.2,286046998.7,N
1640800075.1,286046998.5,N
1640800076.0,286046998.5,N
1640800095.8,286047001.1,N
1640800115.7,286046998.5,N
1640800135.5,286047001.0,N
1640800155.3,286047000.4,N
1640800175.2,286046998.3,N
1640800195.0,286047000.8,N
1640800195.9,286047000.8,N
1640800215.8,286046998.1,N
1640800235.6,286047001.0,N
1640800255.4,286046998.6,N
1640800275.3,286046998.6,N
1640800295.1,286046999.8,N
1640800315.8,286047002.4,N
1640800335.7,286047001.5,N
1640800355.5,286047001.3,N
1640800375.4,286047002.6,N
1640800395.2,286047002.3,N
1640800415.0,286047003.2,N
1640800415.9,286047003.2,N
1640800435.8,286047003.8,N
1640800455.6,286047004.1,N
1640800475.4,286047003.6,N
1640800495.3,286047003.9,N
1640800515.1,286047003.9,N
1640800535.9,286047003.6,N
1640800555.7,286047001.8,N
1640800575.5,286047002.0,N
1640800595.4,286047004.4,N
1640800615.2,286047004.4,N
1640800635.0,286047004.1,N
1640800635.9,286047004.1,N
1640800655.8,286047003.4,N
1640800675.6,286047004.1,N
1640800695.5,286047004.3,N
1640800715.3,286047001.5,N
1640800735.1,286047002.9,N
1640800755.9,286047002.5,N
1640800775.7,286047001.8,N
1640800795.5,286047002.8,N
